Wind_Speed
27 27 27 28 27 27 27 26 25 24 24 23 23 23 22 21 23 23 22 20 20 19 20 19 17 16 18 19 17 16 17 17 16 15 16 16 16 15 13 12 12 13 13 13 12 11 12 12 10 10 10 10 10 9 9 8 8 10 11 12 11 11 12 11 10 13 16 15 14 13 11 12 13 13 13 14 14 14 14 14 13 14 15 16 17
24 23 22 22 22 24 26 26 25 25 26 25 24 23 23 22 22 22 22 22 22 21 21 21 21 20 19 20 19 17 18 18 18 16 16 16 16 15 15 14 14 14 14 15 14 12 13 14 12 11 11 11 11 11 11 11 11 13 13 13 14 14 14 15 13 13 16 18 17 16 15 15 16 16 17 17 17 17 17 16 14 13 14 15 17
28 25 22 18 15 17 23 26 25 25 26 26 26 25 24 23 23 23 23 23 23 23 22 22 22 22 22 22 21 20 20 20 19 18 18 18 17 17 16 16 16 16 16 16 16 14 13 14 15 13 11 11 12 13 13 13 13 14 14 14 15 16 16 17 17 16 17 20 19 18 17 17 17 18 18 19 18 16 16 15 13 13 14 15 17
25 24 25 25 20 17 19 24 26 26 26 26 26 25 24 24 24 24 24 24 24 24 23 24 22 21 23 24 23 22 22 22 21 21 20 19 19 19 18 17 17 18 19 18 17 16 16 15 15 15 13 13 13 13 14 13 13 14 16 15 15 15 15 16 18 19 20 20 20 19 19 18 19 19 19 19 18 15 15 15 15 16 17 17 18
22 23 26 28 26 23 21 23 26 27 26 26 25 25 23 23 25 26 26 25 25 25 24 25 25 23 23 24 24 23 22 22 22 23 23 22 21 20 19 19 18 18 19 19 19 18 18 18 17 16 16 17 17 16 16 16 16 17 17 17 17 17 16 15 16 17 19 21 22 21 20 20 21 22 21 20 19 18 17 17 18 19 20 19 19
23 26 27 28 27 25 23 22 23 25 26 25 25 25 24 22 23 26 27 26 26 26 26 26 27 27 26 25 25 24 23 22 22 23 24 24 23 22 21 20 20 19 19 19 19 19 20 21 21 19 17 17 18 18 18 18 19 18 18 17 18 18 18 18 17 17 17 19 21 22 22 21 21 23 23 21 21 22 21 21 22 21 20 20 18
18 19 21 24 25 24 22 22 23 23 24 23 22 23 24 23 23 24 25 26 26 26 27 27 28 29 28 27 27 26 25 24 23 23 23 24 25 25 24 23 22 22 21 20 20 20 21 22 22 21 19 18 18 18 18 18 19 19 19 18 18 19 19 20 19 19 18 19 20 22 23 22 22 23 24 22 21 22 22 23 24 23 21 20 20
14 11 12 16 20 21 22 22 22 21 22 22 20 20 20 20 20 21 21 22 24 25 26 28 28 29 29 29 29 28 28 27 26 25 25 25 26 26 26 26 25 24 23 23 22 21 22 22 22 22 21 20 19 19 19 19 20 20 20 20 20 21 21 21 21 20 21 21 22 23 23 23 23 24 26 25 24 25 24 22 24 26 25 24 24
14 13 13 15 16 18 19 20 20 19 21 22 22 22 21 19 18 20 20 20 20 21 23 26 28 29 30 30 30 30 30 30 28 28 27 27 28 28 28 27 27 27 26 25 24 24 23 22 23 23 23 23 22 22 22 22 22 23 23 23 24 24 24 24 23 23 24 23 24 25 23 23 25 26 27 27 26 27 27 24 25 27 28 28 26
15 15 15 14 14 13 14 15 16 17 19 21 22 23 23 21 18 19 21 21 20 19 19 21 24 28 30 31 32 32 32 32 31 30 29 29 29 30 30 29 29 28 28 27 27 27 26 25 25 23 23 23 23 23 23 22 23 24 25 25 26 27 27 27 26 26 25 24 25 25 22 22 26 27 27 29 30 29 28 27 26 28 28 26 23
16 15 13 12 11 10 11 12 12 14 14 15 17 18 19 18 17 17 19 21 21 21 20 18 17 21 26 29 31 33 34 34 33 32 31 31 31 31 31 31 30 30 30 29 29 29 28 28 27 26 26 25 24 24 24 23 23 24 26 27 28 29 30 30 29 29 27 25 26 25 22 23 27 29 28 30 31 30 29 27 27 27 25 20 19
15 14 12 11 10 9 9 10 10 11 11 10 11 13 14 15 15 16 18 19 19 20 20 18 14 14 17 22 28 32 35 35 35 34 33 32 32 32 32 32 31 31 31 32 32 32 31 30 29 28 28 28 27 26 25 25 26 26 27 28 27 27 29 30 31 32 29 27 26 26 25 26 28 29 30 30 30 29 29 28 26 26 24 22 22
15 14 11 10 10 10 9 9 9 8 7 7 7 8 9 10 10 12 14 16 17 17 18 18 16 14 12 14 20 27 32 34 34 34 34 33 32 32 32 32 32 32 33 33 33 34 34 33 33 32 31 30 29 29 28 28 27 27 27 28 27 27 27 28 29 30 32 31 29 29 30 30 29 31 32 31 29 28 28 28 27 26 25 24 26
16 15 13 11 9 8 7 7 6 5 3 2 3 3 3 2 3 4 7 10 13 15 17 18 18 16 13 10 11 15 21 26 29 30 31 32 31 31 32 32 32 32 32 33 33 34 34 34 34 34 33 32 31 31 31 30 30 30 30 31 32 32 31 30 29 28 29 31 32 33 35 34 34 35 36 34 31 30 30 31 29 27 27 27 28
14 14 14 13 11 11 10 9 8 7 5 3 1 0 0 1 2 3 3 5 8 10 13 16 17 16 14 12 10 9 10 14 17 19 21 23 25 27 29 31 32 32 32 32 33 34 34 35 35 35 34 33 33 32 32 32 32 33 34 34 35 34 34 34 33 32 31 31 32 34 34 35 35 36 36 35 33 31 31 31 30 29 30 30 30
15 14 14 13 11 11 12 13 12 11 9 7 5 5 4 3 3 4 4 5 6 7 8 10 12 13 13 12 11 9 9 9 10 10 12 14 16 18 20 23 26 28 29 30 31 32 33 33 35 36 37 36 35 33 32 31 32 33 34 34 34 34 35 34 33 34 34 34 34 35 34 34 34 33 32 32 31 30 30 31 32 31 29 26 26
15 14 15 15 13 11 11 12 13 11 10 9 8 8 9 8 5 3 3 4 5 6 6 6 8 10 11 12 11 10 9 9 9 10 11 12 14 15 16 17 19 21 23 25 27 29 30 31 32 33 36 37 38 37 34 33 33 33 33 32 32 33 33 32 32 33 34 34 34 35 35 35 34 32 31 29 28 28 30 31 32 31 26 20 20
16 16 15 15 15 14 12 12 12 11 11 10 9 8 10 10 9 7 5 4 5 5 5 6 6 8 9 10 10 11 10 9 9 11 12 14 15 16 16 18 19 21 22 23 23 24 27 29 31 32 35 37 37 37 36 35 35 33 32 32 32 32 33 32 32 33 33 33 33 33 33 33 33 32 31 30 28 28 30 33 33 30 25 21 22
16 16 15 14 14 14 14 13 12 12 11 11 11 10 10 10 10 10 9 7 7 6 5 5 6 6 7 7 8 9 10 9 10 11 13 15 17 17 18 18 19 20 21 22 23 24 26 29 31 33 36 37 38 38 37 36 36 35 34 32 31 32 34 33 32 32 32 32 31 31 31 31 32 31 31 31 30 28 30 32 32 30 28 27 27
13 14 13 12 11 12 12 13 13 13 12 13 13 12 12 12 11 11 11 10 9 8 7 7 7 6 6 7 6 7 8 9 10 11 13 15 17 18 19 21 22 22 21 22 24 26 28 30 31 32 34 36 38 38 37 36 36 35 34 31 31 33 35 33 31 31 31 30 30 31 31 31 31 31 31 31 30 29 30 30 32 32 31 31 30
12 12 12 11 10 10 11 12 13 13 13 14 14 13 14 14 13 13 13 13 12 11 10 9 9 9 9 8 7 7 8 10 11 12 13 14 16 17 19 21 22 23 23 23 24 26 28 29 29 30 32 34 35 35 35 35 34 33 33 33 34 35 34 32 31 31 30 31 31 30 30 30 30 31 31 31 31 30 30 30 30 31 31 31 31
11 12 12 12 11 11 10 11 12 13 13 15 16 16 16 17 17 16 16 15 13 12 11 11 10 10 9 9 8 7 7 8 9 10 11 12 14 15 17 19 19 20 22 24 25 25 26 27 28 29 30 30 30 30 31 32 32 32 33 34 34 33 33 33 33 32 32 32 30 29 29 29 29 30 30 30 31 31 31 31 32 32 32 32 31
11 12 13 13 13 13 12 12 13 14 14 16 18 18 20 21 20 18 15 13 13 13 12 11 10 7 7 9 11 10 9 9 9 10 9 9 11 12 14 16 16 17 20 23 24 24 24 25 26 27 28 27 28 29 30 30 31 32 34 34 33 31 32 32 33 32 32 31 29 28 29 29 29 29 30 30 32 33 33 34 35 35 35 34 34
12 12 13 13 14 15 15 14 14 14 15 16 18 19 20 20 18 16 14 11 9 10 9 8 6 5 7 11 12 12 11 10 10 11 11 11 11 11 12 13 13 14 17 20 21 22 22 22 23 23 23 24 27 31 33 34 34 33 34 35 33 31 30 31 32 31 30 29 29 30 31 32 31 31 32 33 34 34 35 36 37 36 35 35 35
12 12 12 13 13 14 14 14 14 15 16 17 18 18 16 15 16 16 16 15 13 12 11 9 8 8 9 11 13 13 12 11 10 11 13 14 14 14 13 14 13 13 14 16 18 20 22 23 24 23 22 22 23 27 31 34 34 33 32 31 30 28 27 26 26 26 26 27 29 30 32 34 34 34 35 35 35 36 37 38 38 36 34 33 34
11 11 11 11 12 13 14 14 14 16 16 15 15 16 15 15 16 16 17 16 16 15 13 11 11 11 11 12 13 14 13 12 12 13 14 15 16 16 16 16 16 16 17 19 22 24 25 26 26 25 25 25 24 24 26 28 29 30 31 30 27 26 26 25 24 24 24 27 29 30 32 34 34 35 35 35 36 37 38 37 37 36 34 31 31
13 12 12 11 12 12 13 14 15 16 16 15 15 15 15 16 17 17 18 18 18 17 16 15 15 14 14 15 15 15 15 15 16 16 15 16 17 17 18 19 20 22 23 25 26 26 26 27 26 26 27 27 26 25 24 24 23 24 28 31 32 32 32 32 31 30 29 31 31 32 34 34 33 35 35 35 36 38 37 34 34 36 34 28 28
14 14 14 14 13 13 13 13 15 16 16 16 16 17 17 17 17 17 16 15 15 15 16 17 17 17 17 18 18 18 18 18 19 18 17 19 20 21 22 23 24 25 25 26 26 26 27 27 27 27 27 25 24 24 24 23 21 20 21 25 29 32 34 35 35 34 34 35 34 34 35 34 33 35 36 34 36 38 36 32 32 34 32 26 25
15 15 15 16 16 15 14 13 13 14 16 17 17 16 16 17 18 17 14 12 12 15 17 18 18 17 18 18 18 20 22 22 20 19 19 21 23 24 24 24 25 26 27 27 27 28 28 28 27 26 25 23 22 22 22 21 21 20 20 21 22 25 28 30 29 29 30 31 32 35 36 33 33 36 35 32 34 37 34 30 31 31 28 24 25
16 16 17 17 17 17 17 16 15 16 17 18 19 19 17 15 15 16 16 14 14 15 17 18 17 17 18 19 19 20 23 23 21 20 21 22 23 24 25 25 26 28 29 29 28 27 26 26 26 25 24 23 22 21 21 21 21 21 21 21 21 22 23 23 24 25 26 27 29 34 35 33 33 36 33 29 32 34 31 28 28 28 26 24 26
17 17 17 17 17 17 17 17 17 17 17 17 18 19 19 17 15 15 15 15 15 15 15 16 16 15 17 19 18 17 19 19 18 20 22 22 22 23 25 26 27 29 29 28 26 24 23 24 24 24 23 23 22 22 21 21 21 22 22 21 20 18 18 20 23 27 29 29 31 34 34 33 34 36 32 28 29 31 29 27 26 26 27 27 27
19 18 18 17 16 16 17 17 18 18 18 18 18 19 20 20 19 17 16 15 15 15 15 15 15 14 16 18 19 19 18 17 18 20 22 22 21 23 24 26 26 26 25 23 22 21 20 20 21 22 23 23 22 22 21 21 22 22 21 21 18 15 17 23 27 28 30 32 32 33 34 33 35 36 33 29 28 28 28 27 26 27 27 27 28
20 20 19 18 17 16 16 17 17 18 18 18 19 19 19 19 19 19 19 17 16 15 15 15 14 15 16 17 19 21 22 21 22 24 24 22 22 24 25 23 22 20 19 18 18 19 20 20 20 21 22 22 22 22 22 22 23 22 22 22 19 17 22 29 30 29 31 33 32 32 34 34 35 35 34 30 27 27 28 28 29 28 26 26 27
20 19 19 19 18 18 17 18 18 17 17 18 19 20 19 19 19 20 21 20 19 18 17 16 15 17 18 18 18 20 21 22 23 24 23 23 24 25 23 19 17 17 18 19 19 21 22 22 22 21 21 20 21 21 21 22 23 23 24 25 23 23 26 30 30 31 32 31 28 30 33 34 33 33 33 31 28 26 28 29 28 27 25 25 26
19 19 18 18 19 19 18 19 19 19 19 20 21 21 21 21 20 19 19 19 19 20 21 20 19 19 19 19 18 18 20 21 23 22 22 22 21 19 17 15 16 18 20 20 20 22 23 22 20 19 20 20 20 20 20 21 21 21 21 22 22 22 26 29 30 32 31 28 27 30 32 32 32 32 31 30 27 26 27 28 27 26 27 26 26
19 19 19 19 19 18 18 18 18 18 19 20 20 21 21 22 21 21 20 20 20 21 22 22 22 21 18 16 16 16 19 22 23 21 18 15 12 11 12 14 16 18 19 20 20 20 20 20 20 20 21 21 22 22 21 22 22 22 22 21 21 20 22 27 30 31 29 26 27 28 28 28 30 29 28 28 27 26 27 28 28 28 28 27 25
19 19 19 18 18 18 18 19 18 18 18 18 19 20 21 22 22 22 21 21 21 21 22 23 23 22 18 16 17 19 21 23 23 20 16 12 10 12 13 14 14 15 17 18 19 18 18 20 22 24 25 25 25 25 24 23 23 23 22 22 21 21 22 25 30 31 27 24 24 25 24 24 25 24 23 24 26 26 26 27 27 29 30 28 26
18 18 18 18 18 18 18 19 19 18 18 18 19 20 20 20 20 21 21 21 22 22 22 23 24 23 21 19 21 22 22 22 21 19 16 13 12 13 14 15 16 17 18 18 19 20 21 23 26 28 29 28 27 27 26 24 23 23 22 22 22 22 22 25 30 30 25 22 22 23 23 23 23 22 21 21 23 24 25 25 26 27 28 28 26
17 18 18 18 18 19 18 17 16 16 17 18 19 18 18 19 19 19 20 20 20 21 21 22 23 22 21 20 21 20 20 19 17 15 14 13 13 14 15 17 18 19 19 20 22 23 24 25 27 28 29 26 23 23 24 24 24 23 22 21 22 22 22 24 28 29 26 24 23 23 22 22 22 23 24 23 23 23 24 25 26 26 26 26 26
17 18 17 17 18 19 18 16 15 15 16 17 17 17 18 19 19 19 20 20 20 20 20 20 21 22 21 20 19 18 16 15 13 12 12 13 14 15 17 18 18 19 20 22 23 25 27 28 27 27 26 24 21 21 21 21 22 23 23 22 21 22 24 25 27 29 29 26 24 23 23 23 24 26 27 27 25 24 23 24 25 26 27 26 25
16 16 16 16 17 17 16 15 14 15 15 16 16 17 18 19 20 20 20 20 20 20 21 21 23 24 24 23 21 19 17 15 14 12 12 12 13 15 17 18 19 19 20 21 23 25 27 28 28 27 25 25 24 23 21 21 22 23 23 22 21 21 24 26 27 28 29 28 26 25 25 26 28 28 29 29 27 26 25 24 25 25 25 25 25
14 14 15 15 15 14 14 13 14 15 16 16 17 18 18 19 20 20 21 21 21 22 22 23 24 25 24 24 23 22 19 18 16 14 12 12 12 14 16 18 19 20 20 22 24 25 26 27 28 27 26 25 26 25 23 23 23 23 23 23 22 23 24 26 27 28 30 31 32 31 29 27 27 27 29 28 27 26 25 25 25 25 24 23 23
13 14 14 14 14 14 14 14 14 15 16 17 17 17 18 19 19 20 21 21 21 22 23 24 25 26 25 24 22 20 18 17 15 14 14 14 14 16 17 18 19 21 23 25 26 26 26 26 26 27 27 26 25 25 24 24 24 24 24 24 24 24 25 26 27 29 30 32 35 35 33 30 27 27 28 29 28 28 28 28 28 27 26 25 25
14 14 14 14 14 14 14 14 15 15 16 16 17 17 18 19 20 20 21 21 22 22 23 24 25 26 26 25 23 20 18 17 16 16 16 16 17 17 18 18 19 21 24 27 27 27 27 26 26 27 26 25 25 25 24 24 23 23 24 25 25 26 27 28 29 30 31 32 34 36 36 34 32 29 29 29 28 28 29 28 27 27 26 25 25
14 14 14 14 14 14 14 14 15 15 15 16 17 18 18 18 19 19 20 21 22 23 23 24 24 25 26 26 25 22 20 19 18 18 18 18 18 18 18 19 21 23 25 26 27 27 27 27 26 25 25 25 25 25 25 25 24 24 24 25 26 27 29 30 31 31 31 32 33 35 36 36 34 32 30 28 25 24 25 25 25 25 25 25 25
15 14 14 14 13 13 13 13 13 14 15 16 17 17 17 17 18 19 20 22 23 23 24 24 24 25 26 27 26 24 22 21 20 20 19 19 19 19 19 21 23 24 25 25 27 28 28 27 26 25 25 25 25 25 25 24 24 24 24 25 26 29 31 32 32 33 33 33 34 35 36 36 36 33 29 26 23 22 22 23 24 24 24 24 25
15 13 12 12 12 12 12 12 13 14 15 16 16 17 17 18 19 19 20 22 23 24 24 25 25 26 27 28 27 25 23 21 21 20 19 19 19 20 22 23 24 24 25 26 27 28 28 28 27 25 23 22 21 21 22 22 21 22 23 25 27 30 31 31 31 32 33 33 33 33 34 34 34 32 29 26 24 23 22 22 23 24 24 25 25
13 11 11 11 11 12 12 12 13 14 15 16 17 17 18 20 20 19 19 20 21 22 24 25 27 28 27 26 23 21 19 18 18 18 19 20 22 23 23 23 23 24 26 27 27 28 28 27 25 23 20 19 19 20 21 21 21 22 24 26 28 30 30 29 29 30 30 29 29 29 29 29 29 29 28 27 25 23 22 24 25 24 24 24 23
11 11 11 12 12 12 12 13 15 15 16 16 17 17 18 19 20 20 20 20 21 22 23 25 26 26 24 20 18 17 17 17 18 19 20 22 23 23 23 23 23 24 26 27 27 26 25 23 21 19 18 19 20 22 22 23 24 25 27 29 31 31 30 28 27 27 27 26 25 24 24 25 26 27 26 25 24 23 23 24 23 21 19 19 19
11 11 12 12 12 13 13 15 16 17 17 17 17 18 18 19 20 21 22 22 23 23 23 24 25 24 21 18 17 17 18 19 19 20 21 21 22 22 23 23 24 24 24 24 24 23 22 20 19 19 20 20 21 22 23 24 26 29 31 32 33 33 31 29 26 24 23 23 23 22 22 23 23 23 22 21 21 21 20 18 16 14 13 12 12
11 11 12 12 12 13 14 16 17 18 18 18 18 19 20 20 21 22 22 23 23 24 23 23 24 24 23 21 20 20 20 20 20 21 21 21 21 22 22 23 23 23 23 23 23 22 20 20 19 19 19 19 20 22 24 27 30 33 34 35 34 32 30 28 24 21 20 21 21 21 21 21 21 21 20 18 17 15 13 11 9 7 6 5 4
Wind_Direction
195 198 203 205 207 210 212 214 214 214 214 214 215 216 219 219 214 213 216 219 218 215 217 221 224 223 221 221 227 234 236 238 240 237 234 237 241 242 240 238 245 249 247 252 260 257 250 254 270 271 262 266 270 267 270 273 265 267 275 275 270 270 271 265 261 276 291 302 307 313 320 317 314 315 311 305 301 300 301 300 297 294 295 301 304
194 195 198 203 210 213 214 216 217 218 218 218 218 219 221 222 220 219 220 221 221 219 218 220 223 226 224 223 227 233 239 240 241 241 241 243 245 244 242 240 242 248 253 257 260 257 252 256 267 271 261 259 266 268 269 269 267 272 278 275 272 274 272 266 264 270 283 296 305 309 314 315 314 318 320 315 309 305 301 300 299 299 299 299 300
195 191 191 194 207 217 217 218 220 221 221 221 222 223 224 225 225 226 226 224 224 224 222 223 225 226 226 225 227 231 236 238 239 241 243 245 248 250 250 246 242 245 253 259 259 256 255 258 260 262 261 259 264 271 274 270 265 269 277 280 279 280 277 271 267 264 273 287 297 301 307 312 312 314 320 320 318 314 310 307 305 303 301 299 299
189 186 191 196 200 206 212 217 219 221 222 223 224 225 227 230 229 230 232 231 230 229 227 228 229 229 226 225 228 231 234 235 235 238 243 245 246 249 252 251 248 247 250 255 256 254 254 258 259 259 260 261 263 268 271 270 269 270 275 279 281 284 284 278 272 269 269 277 286 294 301 305 306 308 313 317 318 314 310 307 305 302 302 301 300
185 184 192 199 201 199 201 210 216 219 221 223 224 225 229 233 232 233 234 234 235 234 232 231 231 231 228 226 227 231 234 236 235 236 241 243 244 247 250 252 254 254 254 254 254 255 256 258 264 266 264 263 263 265 266 269 274 277 277 276 280 285 287 285 281 276 270 271 280 290 296 298 300 301 305 310 311 308 304 304 305 305 305 306 304
189 189 193 199 200 196 195 202 210 215 219 220 222 225 228 231 232 232 233 235 237 238 238 235 233 232 232 230 230 233 236 236 236 237 240 243 244 245 248 251 254 257 259 257 254 257 260 262 266 269 266 264 263 265 267 270 274 278 277 276 279 283 284 285 285 282 278 276 280 288 293 296 297 298 301 304 304 302 301 302 305 307 307 309 309
177 182 194 204 208 206 202 203 208 213 216 216 217 222 227 231 231 229 231 234 236 240 242 241 239 236 236 236 237 239 240 239 239 240 241 243 244 245 247 250 253 255 258 259 258 260 262 263 265 266 266 264 264 266 269 271 274 276 276 277 278 279 281 282 281 281 282 283 284 286 290 293 295 295 297 300 299 296 295 297 303 307 307 309 310
165 170 196 210 216 218 215 213 215 218 218 217 219 222 225 232 235 232 231 233 236 239 242 244 244 241 239 240 241 242 242 241 241 242 243 244 245 247 248 249 252 254 256 258 260 262 264 264 263 264 265 265 265 267 268 270 272 272 272 272 272 272 274 276 276 276 278 279 281 283 286 288 289 289 292 295 294 293 295 296 299 302 304 305 308
163 173 191 203 210 216 219 220 222 222 221 222 226 226 226 233 241 240 238 238 240 241 242 244 245 243 242 242 242 241 241 240 241 243 244 245 245 247 249 251 253 255 256 258 260 262 264 264 264 265 266 266 268 269 270 269 268 269 270 270 270 270 270 271 272 273 273 273 275 277 278 280 283 285 287 290 290 291 296 297 295 298 301 302 305
143 156 173 187 198 208 215 217 217 217 219 224 228 229 229 233 241 242 241 244 248 250 251 251 249 247 245 244 242 241 240 240 242 243 244 245 245 246 247 250 253 254 256 258 260 261 262 263 264 265 266 268 269 270 271 270 268 269 271 272 272 271 271 270 270 270 269 268 269 271 272 273 279 283 284 288 292 291 292 293 292 295 298 300 301
124 134 146 163 181 195 207 211 210 212 217 222 224 227 230 236 243 243 242 247 251 254 256 256 253 251 249 247 245 243 241 242 244 245 245 246 245 245 246 248 251 252 254 256 259 262 264 264 264 264 264 265 267 269 271 271 271 271 273 273 273 273 271 269 268 268 266 264 265 267 265 267 276 283 285 288 292 292 291 291 290 291 292 294 295
105 114 123 134 144 151 169 184 190 196 203 208 215 223 230 238 245 247 246 247 249 250 253 254 253 252 251 250 248 246 244 245 246 247 248 247 247 246 246 248 250 251 252 254 257 260 262 263 264 264 264 264 266 268 270 270 272 272 273 275 276 275 273 269 267 266 265 264 265 266 265 267 274 281 284 288 291 293 294 292 289 285 284 284 285
86 91 100 115 123 121 127 139 146 157 170 179 191 206 220 231 241 247 249 251 252 252 255 256 255 255 254 251 249 248 247 247 247 248 249 250 249 248 248 249 251 252 254 255 256 258 259 260 261 261 261 262 264 266 267 268 269 269 270 273 276 278 278 276 273 269 266 265 264 265 268 270 272 278 284 287 289 291 293 291 289 287 284 282 282
75 74 76 83 94 102 109 115 112 108 114 141 167 175 186 207 233 248 252 253 253 254 256 259 258 258 261 260 254 250 248 247 248 248 248 249 250 249 248 249 251 254 256 257 258 259 260 260 260 260 261 260 260 261 262 264 265 267 268 271 273 276 277 279 279 276 271 266 263 264 269 271 272 278 284 286 285 288 291 291 290 289 286 284 285
68 68 68 67 70 73 75 80 80 71 54 30 14 24 295 353 2 336 301 276 262 254 254 258 261 261 263 266 267 264 255 247 245 246 247 248 249 249 249 250 251 253 256 257 259 260 262 263 262 263 263 262 262 261 261 262 264 266 267 269 271 274 275 277 278 279 279 276 272 272 275 276 277 281 286 286 286 289 292 290 290 290 288 287 288
53 56 55 53 55 57 57 59 60 55 42 29 29 33 20 357 341 332 324 308 291 273 260 259 263 265 267 270 274 277 276 269 259 253 251 251 251 252 253 255 256 258 258 259 259 260 262 263 264 265 265 265 266 265 263 263 263 264 265 267 270 272 273 275 277 278 278 279 279 279 280 281 282 283 286 286 285 286 287 287 288 289 287 287 287
37 41 43 43 45 46 46 46 46 41 27 13 13 24 25 19 8 343 311 300 298 294 287 280 276 275 276 279 283 287 290 291 286 277 269 266 264 262 260 260 261 263 263 263 262 261 261 261 263 265 266 267 268 268 266 264 263 262 263 265 267 269 272 275 277 277 277 277 277 278 278 280 280 281 282 281 280 280 279 279 283 285 283 281 280
25 25 28 34 39 37 34 33 30 26 17 4 357 5 12 14 15 9 346 309 292 291 293 295 294 291 289 288 290 293 296 301 302 294 287 282 277 273 270 267 265 265 266 267 268 268 267 265 264 264 264 265 266 267 266 263 261 260 260 262 264 266 270 274 277 277 278 278 277 277 277 278 279 279 280 279 278 276 272 273 278 279 274 269 269
17 14 14 21 28 28 26 25 20 19 17 8 357 353 352 356 0 0 354 335 313 303 298 294 293 295 298 299 301 301 299 301 302 298 292 288 286 285 284 281 276 274 274 276 278 278 278 276 273 268 265 263 262 262 262 261 259 259 259 259 259 262 268 273 275 277 279 279 279 279 280 281 282 281 281 281 280 276 272 273 276 273 267 265 267
10 6 5 10 16 15 16 18 16 15 11 360 352 352 353 351 346 342 342 337 325 317 314 311 306 305 309 309 306 303 295 288 284 283 283 285 287 287 286 283 282 282 284 284 284 284 283 281 279 275 271 266 261 259 259 259 259 260 260 258 257 262 269 273 275 276 277 277 279 281 281 283 283 282 281 281 280 277 274 276 278 274 267 264 264
9 5 8 13 16 11 7 9 8 5 358 348 343 349 357 356 348 337 329 325 322 320 319 321 320 322 326 320 304 295 294 289 282 278 279 281 282 282 282 281 282 284 285 284 283 283 283 282 281 281 279 272 265 261 259 258 258 259 261 262 264 269 275 276 277 277 276 275 276 277 278 280 280 280 279 279 278 278 275 275 277 276 272 267 264
8 3 3 4 7 5 359 356 355 351 345 342 342 348 353 352 347 340 329 322 319 317 318 321 321 327 339 341 331 318 315 316 309 296 285 280 277 277 276 277 279 281 282 282 282 283 284 285 288 290 286 277 268 263 260 258 257 257 259 262 266 270 274 276 277 277 275 274 274 274 275 276 276 277 277 277 277 276 274 273 273 274 274 273 271
358 353 351 348 347 348 346 344 342 340 337 337 342 347 350 351 351 349 342 330 319 316 321 321 317 330 3 8 3 356 346 346 343 329 312 297 286 280 275 275 278 280 281 283 285 287 289 291 292 292 287 277 268 264 263 262 261 261 262 264 264 266 271 274 275 275 273 272 272 272 273 273 273 273 273 274 275 275 275 276 275 274 273 274 275
357 352 348 343 338 338 340 339 339 340 341 342 344 346 350 1 13 21 23 19 2 353 4 12 11 21 16 0 355 352 344 342 343 335 327 319 311 303 295 293 294 293 290 290 291 294 297 299 300 301 296 287 278 273 270 269 267 266 267 267 265 267 271 273 273 272 272 270 269 269 271 272 271 271 272 274 276 277 278 278 278 276 275 274 273
3 360 355 350 344 341 341 342 345 348 349 351 355 359 3 12 22 26 27 31 27 21 26 29 17 5 356 346 342 340 336 334 331 326 321 317 315 315 314 314 314 307 302 300 300 300 301 301 301 303 303 300 295 288 280 274 269 266 267 268 266 266 268 271 272 271 268 266 266 266 268 271 272 273 275 276 276 276 276 276 276 276 275 273 273
359 357 355 353 350 346 344 345 347 347 346 349 357 7 11 6 0 359 1 2 360 358 358 354 345 340 339 339 337 334 332 330 325 322 317 311 309 310 311 311 310 305 302 302 301 299 299 299 298 297 297 298 298 295 291 286 276 266 263 264 265 264 266 270 274 272 269 268 267 267 269 274 276 278 278 276 273 272 272 272 274 274 273 272 273
357 352 351 349 345 341 341 342 341 338 338 341 344 350 356 355 351 349 348 346 344 344 346 344 342 339 336 334 332 328 324 322 322 323 323 319 315 312 310 307 306 305 306 307 306 305 303 302 300 298 297 297 295 292 291 293 290 276 264 262 264 266 268 273 276 275 273 272 272 272 274 276 276 276 274 270 269 270 269 268 269 270 271 271 271
354 350 347 345 342 337 334 335 336 335 336 337 338 341 345 348 347 346 347 346 341 340 343 342 340 338 334 331 327 319 311 310 316 320 322 321 319 316 313 310 310 311 311 311 311 309 306 305 304 303 302 301 298 293 288 288 291 290 281 273 270 269 271 273 273 272 271 271 271 271 273 274 272 272 270 268 268 269 268 265 264 266 268 267 264
351 347 343 341 340 338 335 332 334 337 336 332 331 332 335 339 339 337 339 341 336 333 335 335 332 329 326 323 320 313 306 304 308 311 313 314 315 313 312 311 311 312 313 313 312 310 309 309 309 309 309 306 300 294 290 288 289 291 291 289 284 279 276 273 271 272 274 275 274 273 272 271 270 270 268 266 267 269 268 264 263 265 267 264 260
347 344 341 338 336 335 334 333 332 332 329 326 323 321 321 327 331 329 328 326 321 319 323 326 326 322 317 314 311 308 305 303 302 302 305 308 309 307 306 307 310 313 313 313 311 309 310 311 310 309 308 305 300 296 294 293 291 289 288 288 287 283 277 273 274 276 275 274 273 272 271 268 267 268 266 264 267 270 270 267 265 265 263 260 260
344 339 337 335 332 331 330 328 327 326 323 322 321 318 317 320 325 327 327 324 320 317 317 320 322 320 316 316 316 311 307 304 300 300 303 305 304 302 303 308 312 313 313 311 308 307 308 308 307 307 306 302 300 299 299 296 291 288 286 286 285 279 271 272 275 273 268 266 267 268 267 265 265 266 265 263 265 269 269 268 266 263 259 256 256
342 337 335 331 328 327 326 324 325 325 324 323 322 320 317 317 321 327 329 326 322 319 311 309 313 317 317 319 321 318 313 307 300 299 302 302 298 297 302 310 314 313 314 315 314 315 314 310 306 308 308 304 300 298 297 295 292 288 285 284 283 275 269 274 277 273 268 267 267 266 266 266 266 268 268 265 264 265 266 266 263 260 258 256 255
343 338 335 330 324 321 321 322 324 327 328 328 327 326 323 321 323 328 330 327 325 323 314 304 303 307 310 311 312 311 308 305 301 299 298 298 297 299 304 310 314 318 328 335 334 331 329 322 315 311 308 303 300 298 295 293 293 292 289 287 284 278 276 278 279 275 271 267 264 263 265 266 267 268 269 267 264 263 262 262 261 259 258 256 256
344 340 335 330 326 323 320 318 317 319 321 323 324 324 323 322 322 323 323 323 322 322 321 316 310 306 302 300 301 304 307 311 312 308 300 294 295 299 304 308 316 329 341 348 346 339 332 325 319 317 314 310 309 309 305 301 297 294 292 290 287 282 281 282 280 277 274 271 268 267 268 267 266 266 268 268 266 263 261 260 260 258 256 255 255
341 340 336 334 333 331 329 325 320 315 313 314 316 317 317 317 316 314 313 314 313 312 314 316 317 315 307 299 300 309 318 325 328 322 309 298 295 299 307 318 331 340 345 349 349 345 337 330 329 333 333 331 330 331 329 326 322 316 312 309 304 293 285 282 281 279 276 274 272 272 271 270 268 267 267 267 265 262 261 261 261 259 257 256 255
337 337 338 338 338 338 338 335 330 325 321 318 317 316 314 313 311 309 307 306 304 304 305 307 311 314 312 305 306 314 322 328 329 324 315 309 308 314 326 337 343 344 345 349 352 350 346 342 343 344 341 337 336 336 335 333 334 334 333 334 332 319 300 289 285 283 281 280 279 277 276 274 273 271 270 268 265 262 261 262 262 262 260 259 257
336 335 334 333 335 337 337 334 331 328 327 326 323 320 316 313 311 309 307 304 302 300 300 301 303 305 304 303 307 310 312 315 316 313 309 313 319 324 332 341 346 345 346 348 346 344 342 338 336 337 336 333 330 329 328 326 326 327 328 330 330 326 317 306 296 289 284 283 285 286 285 284 284 283 278 272 268 266 264 263 262 262 262 260 258
333 331 328 327 329 331 332 331 328 326 326 326 325 321 318 315 313 311 309 307 306 303 300 300 300 295 292 297 305 305 303 302 301 298 298 305 313 320 327 333 335 336 338 337 334 333 332 328 326 327 328 326 323 322 322 322 320 320 321 322 321 319 317 312 305 296 287 282 285 292 296 298 299 299 294 283 277 275 273 270 266 264 262 259 255
328 326 323 323 324 324 324 325 323 321 321 320 320 319 318 315 314 312 309 308 308 307 307 308 305 299 298 304 309 306 301 296 292 289 293 303 313 319 323 324 325 326 326 325 325 326 326 323 322 323 324 323 320 319 319 319 317 315 315 316 315 311 308 307 305 300 293 283 279 286 295 299 299 301 299 293 287 282 277 274 270 265 262 258 253
325 322 319 318 318 317 316 314 311 311 314 315 315 316 316 313 312 311 309 308 306 305 306 307 305 305 307 311 313 311 304 296 291 291 296 304 311 314 317 318 319 319 318 318 319 321 322 322 321 322 322 321 318 316 315 314 314 313 311 309 306 303 301 300 298 295 291 285 279 282 288 290 292 294 293 290 287 283 278 276 273 269 265 263 260
322 319 316 313 312 311 309 306 304 306 310 312 312 313 312 311 309 308 307 306 305 303 302 300 299 300 301 301 303 303 298 290 289 290 290 292 297 303 307 311 312 313 314 315 317 319 321 321 320 319 319 320 318 315 313 310 309 308 306 304 300 296 296 296 293 288 286 284 283 284 286 287 289 290 289 289 289 287 284 281 279 275 272 270 269
321 317 315 312 310 309 306 303 303 306 309 310 310 309 308 307 308 307 305 304 303 303 302 300 299 300 299 297 297 295 289 282 278 275 272 275 283 292 298 303 305 308 311 315 317 318 317 317 317 316 315 316 315 313 310 309 307 305 302 300 296 292 290 290 289 286 283 281 280 281 283 285 284 283 283 285 287 288 286 283 282 281 280 279 278
322 317 312 309 307 305 304 302 304 306 306 307 307 306 306 306 307 306 305 303 303 302 301 301 301 302 302 300 298 291 281 272 266 263 264 271 279 286 292 296 299 304 310 314 316 316 314 313 313 312 312 313 312 310 309 308 306 303 300 298 293 289 287 286 285 284 284 283 282 282 283 285 284 282 282 283 284 284 284 282 282 282 282 282 283
322 317 311 306 304 303 302 302 303 303 303 305 305 306 307 307 307 306 305 303 303 302 301 301 301 302 302 300 295 287 278 269 262 262 268 274 280 285 291 295 299 304 309 313 314 313 310 309 309 310 311 312 312 309 307 307 305 301 299 296 291 286 285 285 285 285 285 285 285 285 285 287 287 287 288 288 287 286 284 282 281 281 280 280 280
321 315 309 304 303 301 299 300 301 301 303 305 304 303 303 303 303 304 303 303 302 301 299 299 301 302 302 300 294 283 274 267 264 266 271 276 282 286 290 294 299 303 306 309 309 308 307 306 307 309 311 312 311 308 304 302 300 299 297 293 287 283 282 282 284 285 284 283 283 284 285 287 288 289 289 289 288 285 282 280 278 278 277 276 275
319 314 307 303 302 300 298 300 300 300 302 303 302 302 304 306 306 307 306 305 303 301 299 300 301 300 301 300 294 282 270 264 266 270 273 276 280 285 289 294 298 300 302 303 304 304 304 304 305 307 309 308 307 305 301 298 296 295 294 290 286 284 284 284 282 281 279 278 278 279 281 284 286 287 288 288 285 282 278 277 277 276 275 274 272
323 317 309 304 303 301 301 302 303 303 306 308 307 308 310 310 309 309 308 307 306 303 301 300 298 297 298 298 291 278 266 262 264 268 272 276 281 286 291 294 296 299 300 301 300 300 301 301 302 304 306 305 305 303 300 297 293 290 289 289 289 289 289 287 283 279 277 276 276 276 278 280 282 283 285 284 283 280 277 275 275 275 273 271 269
329 321 314 312 310 308 306 307 309 312 315 314 311 310 310 308 307 307 307 309 309 308 306 303 297 292 291 290 282 269 260 260 264 267 274 281 285 289 291 293 296 298 299 299 298 298 298 299 301 301 301 302 303 301 298 295 291 288 288 290 292 291 288 284 280 278 276 276 275 275 275 276 278 279 281 281 279 277 276 276 276 275 273 271 269
334 328 324 321 317 313 312 314 317 318 317 316 315 315 314 310 307 307 308 309 310 310 311 311 306 297 288 280 273 268 267 269 273 277 281 284 286 289 291 294 297 299 299 298 298 298 298 299 300 300 299 300 300 299 295 292 289 288 290 293 294 293 288 281 276 275 275 274 274 273 273 273 274 276 279 280 279 277 277 276 275 275 275 274 273
338 334 331 325 320 317 316 317 320 320 318 316 317 318 315 310 308 308 307 307 307 306 307 310 312 310 303 294 287 284 282 280 281 283 283 284 286 289 292 295 298 299 298 298 298 298 298 298 301 303 302 301 298 295 291 288 286 286 287 289 292 292 288 280 274 272 272 271 271 271 271 272 274 277 280 279 276 274 272 270 270 272 275 276 277
340 336 332 328 324 322 319 317 319 319 318 317 315 313 311 309 308 307 305 303 302 301 301 301 304 307 306 302 297 292 289 286 285 284 283 284 287 290 293 295 297 298 297 297 298 298 298 300 302 302 300 297 294 292 291 291 290 288 286 285 286 287 285 279 274 272 270 268 267 268 270 272 274 275 274 269 265 263 262 259 260 265 269 274 281
Height
839 842 844 846 848 849 851 853 854 856 856 856 857 857 858 859 859 860 860 861 862 863 864 865 866 867 868 870 870 871 872 872 873 873 874 875 875 875 876 876 876 876 877 877 877 878 878 878 878 878 878 878 877 878 877 877 877 877 877 876 876 876 876 875 875 873 871 871 870 869 869 868 867 866 865 864 863 862 861 860 859 858 857 856 855
838 840 843 846 848 849 851 852 853 855 855 856 856 856 857 858 859 860 860 860 861 862 862 863 864 865 866 868 869 869 870 871 872 872 873 873 874 874 875 875 875 875 876 876 876 877 877 877 877 877 877 877 877 877 877 877 877 876 876 876 876 875 875 875 874 873 871 870 869 869 868 867 866 865 865 863 862 861 859 858 858 857 856 855 854
834 837 840 843 846 848 850 851 852 854 854 855 855 856 857 857 858 859 859 860 860 861 861 862 863 864 864 866 867 867 868 869 870 871 871 872 872 873 873 873 874 874 874 874 875 875 876 876 876 876 876 876 876 876 876 876 876 875 875 875 875 874 874 874 873 873 871 869 869 868 867 867 866 865 864 863 861 860 858 857 857 856 855 854 852
833 836 838 839 841 843 846 848 850 852 853 854 854 855 856 857 857 858 858 859 859 859 860 861 861 862 863 863 864 865 866 867 868 869 869 870 870 871 872 872 872 872 873 873 873 874 874 874 874 875 875 875 875 875 875 874 874 874 874 874 874 874 873 873 872 872 871 869 868 868 867 867 866 865 864 862 861 859 858 857 856 855 853 852 851
832 833 834 835 835 837 841 844 846 849 851 852 853 854 855 855 856 856 857 857 858 858 859 859 859 860 860 861 862 863 864 865 866 866 867 868 868 869 869 870 870 871 871 871 872 872 872 872 872 873 873 873 873 873 873 873 873 873 873 872 872 872 872 872 871 871 870 869 868 867 867 866 865 864 863 862 860 858 857 856 855 853 852 851 850
829 830 831 831 832 834 838 841 844 846 848 850 852 853 853 853 853 854 855 855 856 857 857 858 858 858 858 859 860 860 861 862 863 864 865 866 866 867 867 867 868 868 869 869 869 870 870 870 870 871 871 871 871 871 871 871 871 871 871 871 871 871 870 870 870 869 869 868 867 866 866 865 864 862 862 862 860 858 856 855 853 852 851 849 848
828 830 831 830 831 834 837 839 842 844 846 848 849 850 851 852 852 852 853 854 854 855 856 856 857 857 858 858 859 859 860 861 861 862 863 863 864 864 864 865 865 865 866 867 867 868 868 868 869 869 869 869 869 869 869 869 869 869 869 869 869 869 868 868 868 868 867 867 866 865 864 864 863 862 860 860 859 857 855 854 852 851 850 848 847
828 832 834 833 833 834 835 837 840 843 845 846 847 848 849 850 850 850 851 852 853 853 854 855 855 856 856 857 857 858 858 859 859 860 861 861 862 862 862 862 863 863 863 864 864 865 865 866 866 866 867 867 867 867 867 867 867 866 866 866 866 866 866 866 866 865 865 865 864 863 863 862 861 860 859 858 857 855 854 854 852 849 848 847 846
828 832 833 833 833 833 834 837 839 841 842 843 844 844 845 846 847 848 849 850 851 852 852 853 853 853 854 854 855 855 856 856 857 857 858 859 859 860 860 860 861 861 861 861 862 862 862 863 863 863 864 864 864 864 864 864 864 864 863 863 863 863 863 863 863 863 863 862 862 861 861 860 859 858 857 856 855 853 853 852 851 848 847 846 844
828 830 831 832 832 832 834 836 837 838 839 840 841 841 842 843 844 845 846 847 849 850 851 851 851 851 851 851 852 852 853 853 853 854 855 855 856 857 857 858 859 859 859 859 860 860 860 860 861 861 861 861 862 862 862 862 862 861 861 861 861 861 860 860 860 860 860 859 859 858 858 857 857 856 855 854 853 852 851 851 849 847 846 844 842
828 829 830 830 831 832 834 835 836 837 837 838 839 839 840 841 842 842 843 844 846 847 848 849 849 849 849 849 850 850 850 850 850 851 852 852 853 854 855 855 856 856 857 857 857 857 857 858 858 858 859 859 859 859 859 859 859 859 858 858 858 858 857 857 857 856 856 856 855 856 855 854 854 853 853 851 850 850 849 849 847 846 845 843 841
829 829 829 830 831 832 833 834 835 836 836 836 837 837 839 839 840 840 841 841 843 844 845 846 846 846 846 846 847 846 846 847 847 848 849 849 851 851 852 853 853 854 854 854 854 854 854 854 854 855 855 855 856 856 856 856 856 856 856 855 855 855 854 854 854 853 853 853 852 853 852 851 851 850 850 849 848 848 847 846 846 844 843 842 839
830 830 831 832 832 833 834 835 835 835 834 835 835 836 836 837 837 837 838 839 840 841 843 843 843 844 843 843 844 844 844 844 845 845 846 846 848 849 850 851 851 851 851 851 851 851 850 851 851 851 851 851 852 853 853 853 853 853 853 852 852 852 851 851 851 850 850 850 849 849 849 848 848 847 847 847 846 845 845 844 843 842 841 840 837
832 832 832 833 833 833 834 834 835 834 834 835 835 835 835 835 835 835 836 837 838 839 840 841 841 841 841 841 841 841 842 843 843 844 844 845 846 847 848 848 848 848 848 848 848 848 848 848 847 847 848 848 848 849 849 849 849 850 850 849 848 848 848 848 847 847 847 846 845 845 845 845 844 843 844 844 844 843 842 841 841 840 839 837 836
834 834 834 833 833 833 833 833 833 834 835 836 835 834 834 834 834 834 834 835 836 836 837 838 839 839 839 839 839 840 841 841 841 842 843 843 844 845 845 846 846 846 846 846 846 846 845 845 845 844 844 844 845 845 845 845 845 845 845 845 845 844 844 844 844 843 843 843 841 841 840 841 841 840 841 841 841 841 840 839 838 838 836 835 833
834 835 834 833 833 833 832 832 831 833 835 836 835 834 833 833 833 833 833 834 835 835 835 835 836 837 837 837 837 838 839 840 840 840 841 841 842 842 843 843 843 843 842 843 843 843 843 843 843 842 842 842 842 842 842 842 841 841 841 840 840 840 839 839 840 840 839 839 838 837 836 837 837 837 837 838 838 838 838 836 836 835 834 832 831
834 834 834 833 832 832 832 831 831 832 835 836 836 834 833 833 832 832 833 833 834 834 834 833 834 835 835 836 836 837 838 838 838 839 839 839 839 839 840 840 840 839 839 839 839 839 840 840 840 840 839 838 838 838 838 838 837 836 836 835 835 834 834 835 835 835 834 834 834 833 833 833 833 833 834 834 834 835 834 833 832 832 831 830 828
834 833 832 832 832 832 831 832 832 833 834 836 836 835 833 832 832 832 832 832 833 833 832 832 832 833 834 834 835 835 836 837 836 836 836 837 837 836 836 836 836 836 835 836 836 836 836 837 837 836 835 834 834 834 835 835 833 832 832 831 830 829 829 830 830 829 829 829 829 829 829 829 829 829 829 830 830 831 830 829 829 829 828 827 825
834 833 833 832 832 833 832 833 833 833 834 835 835 835 833 832 831 831 831 832 831 831 831 830 830 831 832 833 833 833 833 834 834 833 833 833 833 833 833 832 832 832 832 832 833 833 833 832 832 832 831 830 829 829 830 830 829 828 827 827 826 824 824 825 825 825 825 824 824 824 824 824 825 825 825 825 826 827 826 825 825 826 824 823 822
836 835 834 834 834 834 834 834 834 834 834 835 835 834 832 830 830 830 830 830 830 830 829 829 829 830 830 831 830 830 830 829 830 830 830 830 830 830 830 829 828 828 829 829 829 828 828 828 828 828 827 826 825 825 825 826 825 824 824 824 822 820 820 822 822 821 821 820 820 820 820 820 820 820 820 821 821 822 822 822 821 821 820 819 819
837 836 836 835 835 835 835 835 835 834 834 834 833 832 830 829 829 829 829 829 829 828 828 828 828 829 829 829 828 827 826 826 826 826 827 827 827 827 826 826 826 826 826 825 825 824 824 824 824 823 823 822 822 822 822 822 822 822 821 820 819 819 819 820 819 818 817 816 816 816 815 816 816 816 816 816 817 817 818 818 817 817 816 815 815
838 837 836 836 836 836 836 836 835 834 833 831 830 829 828 827 827 827 827 827 827 827 827 827 828 828 828 828 827 826 825 825 824 824 824 824 824 824 824 823 824 824 823 822 822 822 822 822 821 821 821 820 820 820 819 819 818 818 817 817 816 816 817 816 816 815 814 813 812 812 811 811 811 811 812 812 812 813 813 813 813 812 812 812 811
840 839 837 836 835 835 835 835 835 834 832 830 829 828 827 826 826 825 825 825 826 826 827 827 827 828 828 827 826 825 825 824 824 823 823 823 823 823 822 821 822 822 821 820 820 820 820 819 819 819 819 818 818 818 817 816 815 814 814 814 813 813 813 812 812 811 810 810 809 808 807 807 807 807 807 807 807 808 808 808 808 807 808 808 808
842 841 839 838 836 835 834 834 834 833 832 831 830 829 828 827 826 825 824 825 826 827 827 827 827 828 828 827 826 825 824 824 823 823 822 822 823 822 821 820 820 820 820 819 819 819 818 817 817 816 816 816 815 814 813 812 811 810 810 810 810 810 809 808 807 807 807 806 806 805 804 803 803 802 802 803 803 803 803 803 803 803 803 803 803
844 843 842 840 838 837 835 834 833 833 832 831 830 829 829 828 827 827 826 826 827 828 828 828 828 828 828 827 825 824 824 823 823 823 822 822 822 822 821 820 819 819 819 819 818 817 817 816 815 814 814 813 812 810 808 807 806 806 806 806 806 806 805 804 803 802 802 802 801 801 800 799 799 799 799 799 799 799 799 798 798 798 799 799 799
844 844 844 843 841 840 838 836 835 834 833 832 831 831 830 830 829 828 828 828 828 828 828 828 828 828 827 827 825 824 823 823 822 822 822 821 821 821 820 819 819 818 818 817 817 815 814 813 812 811 810 810 808 807 805 803 802 802 802 802 802 802 801 801 800 799 798 797 797 796 796 795 796 795 795 795 794 794 794 794 793 793 794 795 795
843 843 843 843 842 841 840 838 837 835 834 833 832 832 832 831 831 830 829 829 828 828 828 828 828 827 827 826 825 823 822 822 822 821 821 820 820 819 819 818 818 817 816 815 814 813 812 811 809 808 807 806 805 803 802 800 798 798 798 798 798 798 798 798 797 796 796 794 793 793 792 792 792 791 790 790 789 788 789 790 790 788 789 792 791
843 842 842 842 841 841 840 839 838 836 835 834 833 832 832 832 831 831 831 830 829 828 828 827 827 827 826 825 824 822 821 821 820 820 819 819 818 817 817 817 816 815 814 813 812 810 809 808 807 805 804 802 801 799 798 797 795 794 794 794 794 794 795 794 794 793 792 792 791 791 789 789 788 786 785 785 784 783 784 786 785 784 785 788 788
842 842 841 840 840 839 839 838 837 836 835 834 833 832 832 831 831 830 830 830 829 828 828 827 826 826 825 824 823 822 820 820 819 819 818 817 817 816 815 815 814 814 813 812 810 808 806 805 804 802 801 800 798 796 795 793 791 790 790 790 790 790 790 790 791 792 792 791 790 788 787 786 784 781 780 781 780 778 780 782 781 781 783 784 783
842 842 841 840 839 838 837 837 836 835 835 834 832 831 830 830 830 829 828 828 827 827 826 825 825 824 823 823 822 821 819 818 818 818 817 816 816 815 814 813 813 811 810 809 807 806 804 802 801 800 798 797 795 793 791 790 788 787 786 787 787 787 787 790 791 790 788 786 784 783 782 781 779 776 776 777 776 775 777 779 779 780 780 780 779
843 842 841 840 838 837 836 835 834 833 833 832 831 830 829 828 828 828 827 827 825 825 824 823 823 822 821 821 820 819 818 817 816 816 815 814 814 813 812 812 811 809 807 806 804 803 802 800 798 797 795 794 792 790 789 787 786 785 784 784 784 784 785 786 784 781 779 778 777 777 777 776 774 771 772 773 773 773 774 775 776 776 776 776 775
843 841 840 839 838 837 836 834 833 832 831 830 830 829 827 826 826 825 826 825 824 824 823 822 822 821 820 819 818 816 815 814 814 813 812 812 812 811 810 809 808 806 805 803 801 801 800 799 797 795 793 791 790 788 787 786 785 784 783 782 782 781 780 778 775 774 774 774 773 774 773 773 771 769 769 770 770 770 771 771 772 772 771 771 770
842 840 839 838 837 836 835 833 832 831 830 829 828 827 827 826 824 823 823 822 822 822 821 821 820 820 819 818 816 815 814 813 812 810 809 809 809 808 807 807 806 804 803 801 800 799 799 797 796 794 792 790 788 787 786 785 783 782 781 780 779 778 775 772 771 771 770 769 770 770 769 769 769 767 766 767 767 767 767 767 767 768 768 768 767
841 839 838 837 836 834 833 832 831 830 829 828 827 826 826 825 824 822 821 820 819 819 819 818 818 817 817 816 815 814 812 811 810 808 807 806 805 805 804 805 804 803 801 800 799 798 797 796 794 793 791 790 788 787 785 784 782 780 778 777 776 774 771 768 768 767 765 766 767 767 766 766 766 765 763 764 764 764 764 763 764 765 765 764 763
840 838 837 836 835 833 832 831 830 829 828 827 826 825 824 823 822 821 820 819 818 817 816 816 816 815 814 813 813 812 811 809 807 806 804 803 803 803 802 802 801 800 799 799 798 797 796 795 794 792 791 790 788 787 785 783 781 779 777 775 773 771 768 766 765 764 763 764 764 763 762 762 762 761 760 760 760 761 760 760 761 761 760 760 760
839 838 836 835 834 833 831 830 828 827 826 825 824 823 822 821 820 820 819 818 816 815 814 813 813 812 812 811 810 810 808 807 806 804 803 801 801 801 801 800 800 799 798 797 796 796 796 795 794 793 792 790 789 787 785 783 781 779 777 774 772 769 767 764 762 761 762 762 760 759 759 758 757 757 757 756 756 756 756 756 757 757 756 756 757
838 837 835 834 833 832 830 829 827 826 825 824 823 822 821 820 819 818 816 816 814 813 812 811 810 810 809 809 809 808 807 806 805 804 802 801 801 800 800 799 799 798 796 795 795 795 795 795 794 793 792 790 788 787 785 783 781 778 776 773 771 769 767 764 760 760 760 760 758 756 756 755 754 754 754 752 752 752 752 753 753 752 752 752 753
837 836 835 834 833 831 830 828 827 825 824 823 822 821 820 819 818 816 815 814 813 812 810 809 808 807 807 806 806 806 805 804 803 802 801 801 800 799 798 797 797 796 794 794 794 793 793 793 793 792 791 789 788 786 784 782 780 777 775 772 770 768 765 762 758 757 758 758 757 755 754 753 751 751 751 750 749 749 749 749 749 749 748 748 749
835 834 834 833 831 830 829 827 826 825 824 822 821 820 819 818 817 815 814 813 812 810 809 808 807 806 805 804 804 803 802 801 801 800 800 799 798 797 797 796 795 794 793 793 792 792 791 791 790 789 789 787 786 785 783 780 778 776 773 771 769 766 764 761 757 755 755 755 755 754 752 750 749 749 748 747 747 747 747 746 746 746 745 744 744
834 833 832 831 830 829 827 826 825 824 823 822 820 819 818 817 816 814 813 812 810 809 808 806 805 804 803 803 802 801 800 799 798 798 798 797 797 796 795 794 794 793 792 791 791 790 789 788 787 786 785 784 784 783 781 779 777 775 772 770 768 765 762 759 756 753 752 753 753 753 751 750 749 748 746 745 744 744 743 743 742 742 741 740 739
833 832 831 830 829 827 826 825 824 822 821 821 819 818 817 815 814 813 811 810 809 807 806 805 803 802 802 801 800 799 798 797 797 796 796 795 795 794 794 793 792 791 790 789 789 788 786 785 784 782 781 781 780 780 779 777 775 773 771 769 767 764 761 758 755 753 751 751 750 750 750 749 748 746 744 742 742 741 740 739 738 737 736 735 734
832 831 830 828 827 826 824 823 822 821 820 819 818 817 815 814 812 811 810 808 807 806 804 802 801 800 799 798 798 797 796 795 794 794 793 793 793 792 792 791 790 789 788 787 786 785 784 782 781 779 778 777 776 776 775 774 773 771 769 767 764 762 759 756 753 751 749 748 747 747 747 747 746 744 742 741 740 739 737 735 734 733 732 731 730
831 830 829 827 826 825 823 822 821 819 818 817 816 815 813 812 811 810 808 807 805 804 802 800 799 797 796 796 795 794 793 792 791 791 790 790 790 790 789 789 788 787 786 785 783 782 780 779 777 776 775 773 773 773 772 771 770 768 766 764 762 760 757 754 752 749 747 745 744 742 742 742 742 741 740 739 737 736 734 732 730 729 728 727 726
829 829 828 826 825 823 822 821 819 818 817 815 814 813 811 810 809 808 806 805 804 802 801 799 797 796 794 793 793 792 790 789 789 789 788 788 788 787 787 786 785 785 784 782 780 779 777 775 774 773 771 770 770 769 768 768 767 766 764 762 760 757 755 752 750 748 745 743 740 738 737 737 737 736 735 734 733 732 730 728 727 726 724 723 723
828 827 826 824 823 822 821 819 818 817 815 814 813 811 810 809 807 806 805 804 802 800 799 797 796 794 793 791 790 789 788 787 787 786 785 785 785 784 784 783 783 782 781 779 778 776 774 772 770 769 767 766 766 765 765 764 763 762 761 759 757 755 752 750 748 746 744 742 739 736 734 733 732 731 731 730 729 728 726 725 724 723 721 720 719
826 825 824 823 821 820 819 818 817 815 814 812 811 810 808 807 806 805 804 802 800 799 797 795 794 792 790 789 788 787 786 785 784 783 783 782 782 782 781 780 779 778 777 776 775 773 771 770 768 766 764 763 762 761 761 760 759 758 757 756 754 752 750 748 746 744 741 739 737 735 733 730 729 728 727 727 726 725 723 722 721 720 718 717 716
824 823 822 821 819 818 817 816 815 813 812 811 809 808 807 806 804 803 802 801 799 797 795 793 792 790 788 786 785 784 783 782 782 781 780 780 779 779 778 777 776 775 774 773 772 770 768 766 765 763 761 759 758 758 757 756 756 755 753 752 751 748 746 744 743 740 738 736 734 732 730 728 726 725 724 724 723 722 720 719 718 716 715 714 712
822 821 820 819 818 817 816 814 813 812 811 810 809 807 806 804 803 802 801 799 797 796 793 791 789 787 785 784 782 781 780 780 779 779 778 778 777 776 775 774 773 772 771 769 768 766 764 763 761 759 757 756 755 755 754 753 752 751 749 748 747 745 743 741 738 736 734 733 731 729 727 725 723 722 721 721 720 718 717 715 714 713 711 710 708
821 820 819 818 817 816 815 814 813 812 810 809 808 807 805 804 802 800 799 797 796 794 792 790 788 785 783 782 780 779 779 778 777 777 776 775 774 773 772 771 770 769 767 766 764 762 761 759 758 756 754 753 752 751 751 751 750 748 746 744 742 741 739 737 734 732 731 729 727 725 724 722 720 719 718 717 716 715 713 712 710 709 707 706 704
821 820 819 818 817 815 814 813 812 811 809 808 807 805 804 802 801 799 797 795 793 792 790 788 786 784 782 780 779 778 777 776 775 774 774 773 772 771 769 768 767 765 764 763 761 759 758 756 754 753 751 750 749 748 748 748 747 745 743 740 738 736 735 733 730 728 727 725 723 722 720 719 717 716 714 713 712 711 710 708 707 705 704 703 702
820 819 819 818 816 815 814 812 811 810 808 807 805 804 802 800 799 797 795 793 791 789 788 786 784 782 781 779 778 776 775 774 773 772 771 770 769 768 767 765 764 763 761 760 758 757 755 753 751 750 748 747 746 746 745 744 743 741 739 736 734 732 730 729 727 725 724 722 720 718 717 715 714 713 712 711 710 709 707 706 704 702 701 701 701